| time (UTC) | temp C | wind direction | speed KPH | gust KPH | rain 1hr cm | rain 24hr cm | rain mn cm | humidity % | barometer mb |
| 20260506124720 | 17 | 253 | 12.9 | 22.5 | 0.00 | 0.41 | 0.20 | 66 | 1005.7 |
| 20260506123717 | 17 | 254 | 11.3 | 24.1 | 0.00 | 0.41 | 0.20 | 66 | 1005.8 |
| 20260506122734 | 17 | 240 | 16.1 | 29.0 | 0.00 | 0.41 | 0.20 | 65 | 1005.7 |
| 20260506121729 | 17 | 256 | 16.1 | 25.7 | 0.00 | 0.41 | 0.20 | 66 | 1005.8 |
| 20260506120726 | 18 | 245 | 9.7 | 17.7 | 0.00 | 0.41 | 0.20 | 66 | 1005.8 |
| 20260506115723 | 17 | 258 | 14.5 | 20.9 | 0.00 | 0.41 | 0.20 | 68 | 1005.7 |
| 20260506114719 | 17 | 236 | 14.5 | 22.5 | 0.00 | 0.41 | 0.20 | 67 | 1005.7 |
| 20260506113736 | 17 | 239 | 12.9 | 22.5 | 0.00 | 0.41 | 0.20 | 69 | 1005.7 |
| 20260506112732 | 17 | 237 | 16.1 | 22.5 | 0.00 | 0.41 | 0.20 | 69 | 1005.8 |
| 20260506111728 | 16 | 245 | 12.9 | 20.9 | 0.00 | 0.41 | 0.20 | 72 | 1005.8 |
| 20260506110724 | 16 | 243 | 9.7 | 16.1 | 0.00 | 0.41 | 0.20 | 71 | 1005.9 |
| 20260506105721 | 16 | 244 | 8.0 | 17.7 | 0.00 | 0.41 | 0.20 | 73 | 1006.0 |
| 20260506104717 | 17 | 233 | 4.8 | 9.7 | 0.00 | 0.41 | 0.20 | 72 | 1005.9 |
| 20260506103734 | 16 | 267 | 6.4 | 12.9 | 0.00 | 0.41 | 0.20 | 75 | 1005.9 |
| 20260506102730 | 16 | 257 | 6.4 | 11.3 | 0.00 | 0.41 | 0.20 | 75 | 1006.0 |
| 20260506101726 | 16 | 246 | 6.4 | 11.3 | 0.00 | 0.41 | 0.20 | 76 | 1006.1 |
| 20260506100723 | 16 | 244 | 9.7 | 14.5 | 0.00 | 0.41 | 0.20 | 75 | 1006.2 |
| 20260506095719 | 16 | 250 | 9.7 | 16.1 | 0.00 | 0.41 | 0.20 | 75 | 1006.1 |
| 20260506094716 | 16 | 231 | 8.0 | 16.1 | 0.00 | 0.41 | 0.20 | 74 | 1006.1 |
| 20260506093732 | 16 | 261 | 9.7 | 22.5 | 0.00 | 0.41 | 0.20 | 76 | 1006.2 |
| 20260506092729 | 16 | 246 | 8.0 | 16.1 | 0.00 | 0.41 | 0.20 | 78 | 1006.1 |
| 20260506091725 | 15 | 246 | 11.3 | 17.7 | 0.00 | 0.41 | 0.20 | 77 | 1006.1 |
| 20260506090721 | 16 | 252 | 11.3 | 16.1 | 0.00 | 0.41 | 0.20 | 77 | 1006.1 |
| 20260506085718 | 16 | 250 | 14.5 | 20.9 | 0.00 | 0.41 | 0.20 | 76 | 1006.2 |
| 20260506084734 | 15 | 247 | 11.3 | 16.1 | 0.00 | 0.41 | 0.20 | 80 | 1006.1 |
| 20260506083730 | 15 | 262 | 8.0 | 12.9 | 0.00 | 0.41 | 0.20 | 81 | 1005.9 |
| 20260506082727 | 15 | 263 | 11.3 | 17.7 | 0.00 | 0.41 | 0.20 | 81 | 1006.0 |
| 20260506081723 | 15 | 259 | 9.7 | 14.5 | 0.00 | 0.41 | 0.20 | 82 | 1005.9 |
| 20260506080720 | 15 | 267 | 9.7 | 20.9 | 0.00 | 0.41 | 0.20 | 84 | 1005.9 |
| 20260506072725 | 14 | 224 | 9.7 | 16.1 | 0.00 | 0.41 | 0.20 | 89 | 1006.0 |
| 20260506071722 | 14 | 245 | 11.3 | 16.1 | 0.00 | 0.41 | 0.20 | 89 | 1005.9 |
| 20260506070719 | 14 | 247 | 14.5 | 20.9 | 0.00 | 0.41 | 0.20 | 89 | 1006.0 |
| 20260506061721 | 13 | 215 | 8.0 | 14.5 | 0.00 | 0.41 | 0.20 | 92 | 1005.8 |
| 20260506060719 | 13 | 238 | 11.3 | 17.7 | 0.00 | 0.41 | 0.20 | 91 | 1005.7 |
| 20260506050716 | 12 | 218 | 3.2 | 6.4 | 0.00 | 0.41 | 0.20 | 96 | 1006.0 |
| 20260506044729 | 12 | 256 | 1.6 | 4.8 | 0.00 | 0.41 | 0.20 | 98 | 1005.8 |
| 20260506043725 | 12 | 274 | 1.6 | 3.2 | 0.00 | 0.41 | 0.20 | 98 | 1005.9 |
| 20260506042722 | 12 | 274 | 3.2 | 4.8 | 0.03 | 0.41 | 0.20 | 98 | 1005.9 |
| 20260506041718 | 12 | 264 | 3.2 | 6.4 | 0.03 | 0.41 | 0.20 | 98 | 1005.7 |
| 20260506040735 | 12 | 271 | 4.8 | 6.4 | 0.03 | 0.41 | 0.20 | 98 | 1005.7 |
| 20260506035731 | 12 | 256 | 4.8 | 11.3 | 0.03 | 0.41 | 0.20 | 98 | 1005.9 |
| 20260506034727 | 12 | 267 | 6.4 | 12.9 | 0.03 | 0.41 | 0.20 | 98 | 1006.0 |
| 20260506033724 | 12 | 267 | 4.8 | 6.4 | 0.03 | 0.41 | 0.20 | 97 | 1005.9 |
| 20260506032720 | 12 | 255 | 6.4 | 9.7 | 0.00 | 0.38 | 0.18 | 97 | 1005.9 |
| 20260506031717 | 12 | 246 | 4.8 | 11.3 | 0.00 | 0.38 | 0.18 | 97 | 1005.8 |
| 20260506030733 | 12 | 243 | 6.4 | 12.9 | 0.00 | 0.38 | 0.18 | 97 | 1005.9 |
| 20260506025730 | 12 | 240 | 6.4 | 11.3 | 0.00 | 0.38 | 0.18 | 97 | 1006.0 |
| 20260506024727 | 12 | 231 | 4.8 | 11.3 | 0.00 | 0.38 | 0.18 | 97 | 1006.0 |
| 20260506023723 | 12 | 246 | 6.4 | 11.3 | 0.00 | 0.38 | 0.18 | 97 | 1006.0 |
| 20260506022723 | 12 | 250 | 6.4 | 12.9 | 0.00 | 0.38 | 0.18 | 97 | 1006.3 |
| 20260506021716 | 12 | 248 | 6.4 | 12.9 | 0.00 | 0.38 | 0.18 | 97 | 1006.2 |
| 20260506020733 | 12 | 233 | 4.8 | 9.7 | 0.00 | 0.38 | 0.18 | 97 | 1006.1 |
| 20260506015729 | 12 | 246 | 4.8 | 6.4 | 0.00 | 0.38 | 0.18 | 97 | 1006.2 |
| 20260506014725 | 12 | 219 | 6.4 | 14.5 | 0.00 | 0.38 | 0.18 | 97 | 1006.2 |
| 20260506013722 | 13 | 246 | 6.4 | 11.3 | 0.00 | 0.38 | 0.18 | 97 | 1006.2 |
| 20260506012718 | 13 | 220 | 8.0 | 16.1 | 0.03 | 0.38 | 0.18 | 97 | 1006.2 |
| 20260506011735 | 13 | 227 | 9.7 | 16.1 | 0.03 | 0.38 | 0.18 | 97 | 1006.3 |
| 20260506010731 | 13 | 240 | 8.0 | 17.7 | 0.05 | 0.38 | 0.18 | 97 | 1006.2 |
| 20260506005728 | 13 | 221 | 11.3 | 20.9 | 0.08 | 0.38 | 0.18 | 97 | 1006.3 |
| 20260506004728 | 13 | 225 | 9.7 | 20.9 | 0.13 | 0.38 | 0.18 | 98 | 1006.3 |
| 20260506003721 | 13 | 211 | 8.0 | 16.1 | 0.13 | 0.38 | 0.18 | 98 | 1006.4 |
| 20260506002717 | 13 | 207 | 4.8 | 11.3 | 0.13 | 0.36 | 0.15 | 99 | 1006.4 |
| 20260506001738 | 13 | 184 | 3.2 | 9.7 | 0.13 | 0.36 | 0.15 | 98 | 1006.5 |
| 20260506000731 | 13 | 168 | 3.2 | 4.8 | 0.10 | 0.33 | 0.13 | 98 | 1006.6 |
| 20260505235727 | 13 | 211 | 3.2 | 6.4 | 0.08 | 0.30 | 0.10 | 98 | 1006.7 |
| 20260505234723 | 13 | 214 | 3.2 | 4.8 | 0.05 | 0.25 | 0.05 | 98 | 1006.8 |
| 20260505233724 | 13 | 211 | 8.0 | 11.3 | 0.05 | 0.25 | 0.05 | 98 | 1006.9 |
| 20260505232716 | 13 | 215 | 9.7 | 16.1 | 0.03 | 0.23 | 0.03 | 99 | 1006.8 |
| 20260505231733 | 13 | 209 | 4.8 | 9.7 | 0.03 | 0.23 | 0.03 | 99 | 1006.9 |
| 20260505230730 | 13 | 152 | 1.6 | 4.8 | 0.03 | 0.23 | 0.03 | 99 | 1006.9 |
| 20260505225726 | 13 | 0.0 | 0.0 | 0.03 | 0.23 | 0.03 | 99 | 1006.9 | |
| 20260505224723 | 13 | 148 | 1.6 | 3.2 | 0.00 | 0.20 | 0.00 | 99 | 1007.1 |
| 20260505223720 | 13 | 135 | 3.2 | 3.2 | 0.00 | 0.20 | 0.00 | 99 | 1007.0 |
| 20260505222715 | 13 | 152 | 0.0 | 1.6 | 0.00 | 0.20 | 0.00 | 99 | 1007.2 |
| 20260505221732 | 13 | 124 | 3.2 | 4.8 | 0.00 | 0.20 | 0.00 | 99 | 1007.1 |
| 20260505220729 | 13 | 0.0 | 0.0 | 0.00 | 0.20 | 0.00 | 99 | 1007.2 | |
| 20260505215725 | 13 | 0.0 | 0.0 | 0.00 | 0.20 | 0.20 | 99 | 1007.2 | |
| 20260505214722 | 13 | 150 | 1.6 | 3.2 | 0.00 | 0.20 | 0.20 | 99 | 1007.2 |
| 20260505213718 | 13 | 160 | 0.0 | 1.6 | 0.00 | 0.20 | 0.20 | 99 | 1007.2 |
| 20260505212740 | 13 | 151 | 1.6 | 3.2 | 0.00 | 0.20 | 0.20 | 99 | 1007.4 |
| 20260505211731 | 13 | 152 | 1.6 | 3.2 | 0.00 | 0.20 | 0.20 | 99 | 1007.5 |
| 20260505210728 | 13 | 154 | 1.6 | 3.2 | 0.00 | 0.20 | 0.20 | 99 | 1007.5 |
| 20260505205724 | 13 | 154 | 1.6 | 3.2 | 0.00 | 0.20 | 0.20 | 99 | 1007.5 |
| 20260505204721 | 13 | 155 | 1.6 | 3.2 | 0.00 | 0.20 | 0.20 | 99 | 1007.5 |
| 20260505203717 | 13 | 167 | 0.0 | 1.6 | 0.00 | 0.20 | 0.20 | 99 | 1007.4 |
| 20260505202734 | 13 | 0.0 | 0.0 | 0.00 | 0.20 | 0.20 | 99 | 1007.5 | |
| 20260505201730 | 13 | 0.0 | 0.0 | 0.00 | 0.20 | 0.20 | 99 | 1007.4 | |
| 20260505200727 | 13 | 0.0 | 0.0 | 0.00 | 0.20 | 0.20 | 99 | 1007.3 | |
| 20260505195723 | 13 | 0.0 | 0.0 | 0.00 | 0.20 | 0.20 | 99 | 1007.2 | |
| 20260505194720 | 13 | 0.0 | 0.0 | 0.00 | 0.20 | 0.20 | 99 | 1007.3 | |
| 20260505193716 | 14 | 0.0 | 0.0 | 0.00 | 0.20 | 0.20 | 99 | 1007.2 | |
| 20260505192733 | 14 | 0.0 | 0.0 | 0.00 | 0.20 | 0.20 | 99 | 1007.3 | |
| 20260505191730 | 14 | 0.0 | 0.0 | 0.00 | 0.20 | 0.20 | 99 | 1007.1 | |
| 20260505190726 | 14 | 0.0 | 0.0 | 0.03 | 0.20 | 0.20 | 99 | 1007.2 | |
| 20260505185723 | 14 | 249 | 0.0 | 1.6 | 0.03 | 0.20 | 0.20 | 98 | 1007.1 |
| 20260505184720 | 14 | 276 | 1.6 | 1.6 | 0.03 | 0.20 | 0.20 | 98 | 1007.0 |
| 20260505183716 | 14 | 243 | 0.0 | 1.6 | 0.05 | 0.20 | 0.20 | 98 | 1007.1 |
| 20260505182733 | 14 | 231 | 1.6 | 1.6 | 0.05 | 0.20 | 0.20 | 98 | 1007.2 |
| 20260505181729 | 15 | 252 | 3.2 | 3.2 | 0.05 | 0.20 | 0.20 | 98 | 1007.2 |
| 20260505180725 | 15 | 248 | 3.2 | 4.8 | 0.03 | 0.18 | 0.18 | 98 | 1007.2 |
| 20260505175722 | 15 | 0.0 | 0.0 | 0.03 | 0.18 | 0.18 | 98 | 1007.3 | |
| 20260505174718 | 15 | 0.0 | 0.0 | 0.05 | 0.18 | 0.18 | 98 | 1007.3 | |
| 20260505173735 | 15 | 223 | 0.0 | 3.2 | 0.05 | 0.15 | 0.15 | 97 | 1007.3 |
| 20260505172731 | 15 | 239 | 1.6 | 3.2 | 0.08 | 0.15 | 0.15 | 97 | 1007.2 |
| 20260505171728 | 15 | 252 | 3.2 | 6.4 | 0.08 | 0.15 | 0.15 | 97 | 1007.2 |
| 20260505170725 | 15 | 247 | 1.6 | 4.8 | 0.10 | 0.15 | 0.15 | 97 | 1007.3 |
| 20260505165721 | 15 | 266 | 0.0 | 1.6 | 0.13 | 0.15 | 0.15 | 97 | 1007.3 |
| 20260505164717 | 15 | 261 | 0.0 | 1.6 | 0.13 | 0.13 | 0.13 | 97 | 1007.4 |
| 20260505163734 | 15 | 268 | 1.6 | 3.2 | 0.10 | 0.10 | 0.10 | 96 | 1007.5 |
| 20260505162730 | 15 | 256 | 1.6 | 3.2 | 0.08 | 0.08 | 0.08 | 96 | 1007.6 |
| 20260505161727 | 15 | 261 | 3.2 | 6.4 | 0.08 | 0.08 | 0.08 | 95 | 1007.5 |
| 20260505160726 | 15 | 221 | 3.2 | 4.8 | 0.05 | 0.05 | 0.05 | 95 | 1007.6 |
| 20260505152729 | 15 | 255 | 9.7 | 12.9 | 0.00 | 0.00 | 0.00 | 91 | 1007.3 |
| 20260505151725 | 15 | 258 | 9.7 | 14.5 | 0.00 | 0.00 | 0.00 | 88 | 1007.4 |
| 20260505150722 | 15 | 269 | 9.7 | 14.5 | 0.00 | 0.00 | 0.00 | 89 | 1007.3 |